sat.trackr.live / text

‹ back to catalog

STARLINK-1478

NORAD 45755 · 2020-038AB

PAYLOAD ACTIVE UNKNOWN

§ Identity

Operator
Country
US
Launch date
2020-06-13
Launch site
AFETR
Launch vehicle
Mass (kg)
RCS (m²)

Purposes: comms

External: N2YO · Heavens-Above · Gunter

§ Orbital elements

Epoch: 2026-05-24T13:00:22.601664Z

Period
91.92 min
Inclination
53.0449°
Eccentricity
0.0004488
Mean motion
15.66614484 rev/d
Perigee alt
365.6 km
Apogee alt
371.6 km
Semi-major
6,746.7 km
B*
4.0431e-4
RAAN
187.5637°
Arg perigee
24.5504°
Mean anomaly
335.5724°
Rev number
32,858

§ Raw data

STARLINK-14781 45755U 20038AB  26144.54192826  .00042834  00000+0  40431-3 0  99982 45755  53.0449 187.5637 0004488  24.5504 335.5724 15.66614484328584

JSON: /api/v1/satellites/45755 · /tle

For live sub-satellite position, see the globe view (requires WebGL).

§ Visibility from observer

Set your observer location to see the next 7 days of passes ≥ 10°. The values pass through the URL so the page stays shareable.

No JS? Fill the form by hand. The geolocation button needs JavaScript.